Portada
METAR-TAF:

METAR-TAF

Aeroports :

Cloncurry, Austràlia

latitud: 20-40-07S, longitud: 140-30-16E, altitud: 188 m

Observació

L'informe es va fer fa 23 minuts, a les 07:25 UTC
Vent 19 kt del Sud-Oest, variant entre Sud/Sud-Est i Sud-Oest
Temperatura 32°C
Humitat 36%
Pressió 1007 hPa

METAR: YCCY 180725Z AUTO 22019KT 160V220 //// // ////// 32/15 Q1007

Hora: 17:48 (07:48 UTC)


TAF: manca

Observacions i pronòstics meteorològics de més de 4000 aeroports (METAR i TAF).

Les estacions disponibles són els punts grocs i vermells al mapa.

Posi el ratolí al punt desitjat per veure el nom de l'estació.

Feu clic per veure les observacions i els pronòstics meteorològics.

Per canviar el mapa: feu clic els botons verds amb una creu de color negre per apropar; al botó verd amb un guió per allunyar la imatge; o en les fletxes verdes per a mapes adjacents.


METAR-TAF: